{"data":{"norad_id":45461,"epoch":"2026-05-25T00:30:23.846976Z","epoch_age_seconds":69624,"freshness":"FRESH","line1":"1 45461U 20021B   26145.02110934  .00002381  00000+0  17746-3 0  9994","line2":"2 45461  34.9953 351.6693 0002508 348.7387  11.3265 15.02592125337006","mean_motion":15.02592125,"eccentricity":0.0002508,"inclination_deg":34.9953,"raan_deg":351.6693,"arg_perigee_deg":348.7387,"mean_anomaly_deg":11.3265,"bstar":0.00017746,"rev_number":33700,"period_min":95.834390187557,"perigee_km":557.16697523999,"apogee_km":560.64659640295,"semimajor_km":6937.0437858215,"source":"CELESTRAK","updated_at":"2026-05-25T13:37:56.181811Z"}}